Hourly Data Report for October 06, 2017

All times are specified in Local Standard Time (LST). Add 1 hour to adjust for Daylight Saving Time where and when it is observed.

BRIER ISLAND
NOVA SCOTIA

44°17'09.000" N
66°20'48.000" W
15.80 m
8200604
71988
WVU

Download Data

Hourly Data (October 2017)
Hourly Data Report for October 6, 2017
Temp Definition
°C
Dew Point Temp Definition
°C
Rel Hum Definition
%
Wind Dir Definition
10's deg

Wind Spd Definition
km/h
Visibility Definition
km
Stn Press Definition
kPa
Hmdx Definition


Wind Chill Definition


Weather Definition


TIME
00:00 16.0 11.4 74 20 14   101.22     LegendNANA
01:00 14.8 13.5 92 21 15   101.29     LegendNANA
02:00 13.9 12.8 93 25 12   101.31     LegendNANA
03:00 13.5 12.0 90 25 11   101.27     LegendNANA
04:00 13.4 11.7 89 24 11   101.31     LegendNANA
05:00 13.4 10.6 83 23 11   101.38     LegendNANA
06:00 13.2 10.3 83 24 11   101.44     LegendNANA
07:00 14.0 9.9 76 23 13   101.46     LegendNANA
08:00 14.9 11.1 78 23 14   101.53     LegendNANA
09:00 15.2 11.9 81 23 14   101.55     LegendNANA
10:00 15.0 12.1 83 25 12   101.59     LegendNANA
11:00 15.9 12.2 79 25 12   101.59     LegendNANA
12:00 15.4 12.6 83 27 6   101.61     LegendNANA
13:00 13.7 12.0 89 25 7   101.58     LegendNANA
14:00 14.0 11.8 87 24 5   101.57     LegendNANA
15:00 14.4 10.3 76 20 6   101.58     LegendNANA
16:00 14.0 11.3 84 20 10   101.52     LegendNANA
17:00 13.8 12.2 90 16 7   101.51     LegendNANA
18:00 13.0 11.5 91 17 12   101.52     LegendNANA
19:00 12.7 11.3 91 17 13   101.56     LegendNANA
20:00 12.7 11.3 91 18 13   101.62     LegendNANA
21:00 12.7 11.5 92 18 12   101.67     LegendNANA
22:00 12.6 11.1 90 19 10   101.75     LegendNANA
23:00 12.7 11.6 93 21 8   101.82     LegendNANA

Notes on Data Quality.

Legend

  • E = Estimated
  • M = Missing
  • NA = Not Available
  • ‡ = Partner data that is not subject to review by the National Climate Archives
Date modified: